| time (UTC) | temp F | wind direction | speed MPH | gust MPH | rain 1hr in | rain 24hr in | rain mn in | humidity % | barometer mb |
| 20260506181004 | 70 | 163 | 9.0 | 14.0 | 0.00 | 0.00 | 0.00 | 49 | 1004.9 |
| 20260506180008 | 71 | 145 | 10.0 | 18.0 | 0.00 | 0.00 | 0.00 | 49 | 1004.9 |
| 20260506175005 | 71 | 190 | 10.0 | 18.0 | 0.00 | 0.00 | 0.00 | 48 | 1004.9 |
| 20260506174004 | 72 | 180 | 11.0 | 18.0 | 0.00 | 0.00 | 0.00 | 47 | 1004.9 |
| 20260506173005 | 72 | 203 | 10.0 | 16.0 | 0.00 | 0.00 | 0.00 | 48 | 1005.0 |
| 20260506172004 | 72 | 142 | 8.0 | 15.0 | 0.00 | 0.00 | 0.00 | 48 | 1004.9 |
| 20260506171004 | 72 | 189 | 9.0 | 15.0 | 0.00 | 0.00 | 0.00 | 47 | 1004.9 |
| 20260506165005 | 73 | 184 | 8.0 | 13.0 | 0.00 | 0.00 | 0.00 | 47 | 1004.9 |
| 20260506164005 | 73 | 178 | 5.0 | 11.0 | 0.00 | 0.00 | 0.00 | 48 | 1005.0 |
| 20260506163007 | 73 | 221 | 3.0 | 5.0 | 0.00 | 0.00 | 0.00 | 49 | 1005.0 |
| 20260506162007 | 72 | 209 | 3.0 | 6.0 | 0.00 | 0.00 | 0.00 | 49 | 1005.2 |
| 20260506160007 | 73 | 198 | 7.0 | 13.0 | 0.00 | 0.00 | 0.00 | 48 | 1005.3 |
| 20260506155005 | 73 | 163 | 7.0 | 11.0 | 0.00 | 0.00 | 0.00 | 47 | 1005.5 |
| 20260506153004 | 74 | 145 | 6.0 | 10.0 | 0.00 | 0.00 | 0.00 | 46 | 1005.6 |
| 20260506152004 | 74 | 202 | 6.0 | 11.0 | 0.00 | 0.00 | 0.00 | 47 | 1005.7 |
| 20260506151005 | 74 | 191 | 6.0 | 13.0 | 0.00 | 0.00 | 0.00 | 47 | 1005.8 |
| 20260506150009 | 74 | 213 | 8.0 | 13.0 | 0.00 | 0.00 | 0.00 | 45 | 1005.9 |
| 20260506145006 | 74 | 248 | 7.0 | 14.0 | 0.00 | 0.00 | 0.00 | 46 | 1006.0 |
| 20260506144007 | 74 | 211 | 9.0 | 14.0 | 0.00 | 0.00 | 0.00 | 46 | 1005.9 |
| 20260506142004 | 75 | 246 | 8.0 | 13.0 | 0.00 | 0.00 | 0.00 | 44 | 1006.1 |
| 20260506141004 | 75 | 180 | 10.0 | 19.0 | 0.00 | 0.00 | 0.00 | 43 | 1006.3 |
| 20260506140006 | 75 | 217 | 10.0 | 18.0 | 0.00 | 0.00 | 0.00 | 43 | 1006.4 |
| 20260506135003 | 75 | 307 | 10.0 | 16.0 | 0.00 | 0.00 | 0.00 | 43 | 1006.4 |
| 20260506134004 | 75 | 267 | 10.0 | 19.0 | 0.00 | 0.00 | 0.00 | 42 | 1006.3 |
| 20260506133006 | 76 | 238 | 13.0 | 21.0 | 0.00 | 0.00 | 0.00 | 41 | 1006.4 |
| 20260506132006 | 77 | 269 | 12.0 | 21.0 | 0.00 | 0.00 | 0.00 | 41 | 1006.4 |
| 20260506131004 | 76 | 242 | 12.0 | 21.0 | 0.00 | 0.00 | 0.00 | 37 | 1006.6 |
| 20260506130008 | 77 | 224 | 11.0 | 19.0 | 0.00 | 0.00 | 0.00 | 40 | 1006.6 |
| 20260506125006 | 76 | 189 | 12.0 | 20.0 | 0.00 | 0.00 | 0.00 | 43 | 1006.7 |
| 20260506123006 | 77 | 159 | 11.0 | 21.0 | 0.00 | 0.00 | 0.00 | 43 | 1006.7 |
| 20260506122005 | 77 | 222 | 12.0 | 22.0 | 0.00 | 0.00 | 0.00 | 44 | 1006.7 |
| 20260506121006 | 75 | 217 | 12.0 | 21.0 | 0.00 | 0.00 | 0.00 | 45 | 1006.8 |
| 20260506120008 | 75 | 187 | 13.0 | 26.0 | 0.00 | 0.00 | 0.00 | 44 | 1006.8 |
| 20260506115006 | 76 | 193 | 12.0 | 24.0 | 0.00 | 0.00 | 0.00 | 46 | 1006.8 |
| 20260506111005 | 74 | 198 | 11.0 | 19.0 | 0.00 | 0.00 | 0.00 | 49 | 1006.8 |
| 20260506110008 | 74 | 203 | 14.0 | 26.0 | 0.00 | 0.00 | 0.00 | 48 | 1007.0 |
| 20260506105005 | 73 | 174 | 11.0 | 19.0 | 0.00 | 0.00 | 0.00 | 49 | 1007.0 |
| 20260506104008 | 74 | 220 | 10.0 | 17.0 | 0.00 | 0.00 | 0.00 | 50 | 1007.2 |
| 20260506103008 | 74 | 209 | 11.0 | 23.0 | 0.00 | 0.00 | 0.00 | 52 | 1007.1 |
| 20260506102008 | 73 | 214 | 14.0 | 20.0 | 0.00 | 0.00 | 0.00 | 51 | 1007.1 |
| 20260506095007 | 72 | 192 | 12.0 | 21.0 | 0.00 | 0.00 | 0.00 | 54 | 1007.1 |
| 20260506093008 | 72 | 221 | 10.0 | 23.0 | 0.00 | 0.00 | 0.00 | 54 | 1007.3 |
| 20260506092007 | 69 | 188 | 12.0 | 22.0 | 0.00 | 0.00 | 0.00 | 56 | 1007.2 |
| 20260506091007 | 70 | 210 | 14.0 | 22.0 | 0.00 | 0.00 | 0.00 | 55 | 1007.1 |
| 20260506090009 | 71 | 196 | 14.0 | 25.0 | 0.00 | 0.00 | 0.00 | 54 | 1007.0 |
| 20260506085007 | 70 | 244 | 12.0 | 22.0 | 0.00 | 0.00 | 0.00 | 56 | 1006.9 |
| 20260506083007 | 69 | 188 | 12.0 | 22.0 | 0.00 | 0.00 | 0.00 | 58 | 1006.9 |
| 20260506082007 | 68 | 165 | 11.0 | 20.0 | 0.00 | 0.00 | 0.00 | 58 | 1006.9 |
| 20260506073006 | 66 | 247 | 12.0 | 20.0 | 0.00 | 0.00 | 0.00 | 62 | 1006.9 |
| 20260506072007 | 65 | 237 | 12.0 | 20.0 | 0.00 | 0.00 | 0.00 | 62 | 1006.8 |
| 20260506071005 | 65 | 227 | 12.0 | 17.0 | 0.00 | 0.00 | 0.00 | 63 | 1006.7 |
| 20260506062007 | 62 | 234 | 11.0 | 22.0 | 0.00 | 0.00 | 0.00 | 66 | 1006.5 |
| 20260506051004 | 59 | 254 | 9.0 | 16.0 | 0.00 | 0.00 | 0.00 | 69 | 1006.1 |
| 20260506045004 | 58 | 246 | 6.0 | 12.0 | 0.00 | 0.00 | 0.00 | 71 | 1006.0 |
| 20260506044005 | 58 | 227 | 8.0 | 15.0 | 0.00 | 0.00 | 0.00 | 71 | 1005.9 |
| 20260506043005 | 58 | 179 | 7.0 | 15.0 | 0.00 | 0.00 | 0.00 | 70 | 1005.9 |
| 20260506042005 | 57 | 194 | 5.0 | 10.0 | 0.00 | 0.00 | 0.00 | 71 | 1005.9 |
| 20260506041004 | 57 | 209 | 4.0 | 8.0 | 0.00 | 0.00 | 0.00 | 72 | 1005.8 |
| 20260506040008 | 57 | 219 | 6.0 | 12.0 | 0.00 | 0.00 | 0.00 | 71 | 1005.8 |
| 20260506035005 | 57 | 205 | 7.0 | 10.0 | 0.00 | 0.00 | 0.00 | 71 | 1005.6 |
| 20260506034006 | 56 | 204 | 7.0 | 10.0 | 0.00 | 0.00 | 0.00 | 72 | 1005.6 |
| 20260506033009 | 56 | 197 | 5.0 | 12.0 | 0.00 | 0.00 | 0.00 | 72 | 1005.6 |
| 20260506031007 | 55 | 223 | 3.0 | 5.0 | 0.00 | 0.00 | 0.00 | 72 | 1005.7 |
| 20260506030009 | 55 | 213 | 3.0 | 7.0 | 0.00 | 0.00 | 0.00 | 72 | 1005.6 |
| 20260506025006 | 55 | 227 | 4.0 | 6.0 | 0.00 | 0.00 | 0.00 | 72 | 1005.6 |
| 20260506023010 | 55 | 235 | 2.0 | 4.0 | 0.00 | 0.00 | 0.00 | 70 | 1005.8 |
| 20260506022008 | 54 | 200 | 3.0 | 4.0 | 0.00 | 0.00 | 0.00 | 71 | 1005.7 |
| 20260506021010 | 54 | 232 | 1.0 | 3.0 | 0.00 | 0.00 | 0.00 | 71 | 1005.8 |
| 20260506020013 | 54 | 232 | 1.0 | 2.0 | 0.00 | 0.00 | 0.00 | 71 | 1005.7 |
| 20260506015006 | 56 | 232 | 1.0 | 2.0 | 0.00 | 0.00 | 0.00 | 68 | 1005.7 |
| 20260506014008 | 56 | 232 | 2.0 | 3.0 | 0.00 | 0.00 | 0.00 | 67 | 1005.8 |
| 20260506013006 | 57 | 232 | 2.0 | 3.0 | 0.00 | 0.00 | 0.00 | 66 | 1005.7 |
| 20260506010009 | 56 | 215 | 2.0 | 5.0 | 0.00 | 0.00 | 0.00 | 68 | 1005.6 |
| 20260506005006 | 55 | 163 | 1.0 | 4.0 | 0.00 | 0.00 | 0.00 | 68 | 1005.5 |
| 20260506004006 | 56 | 163 | 1.0 | 2.0 | 0.00 | 0.00 | 0.00 | 67 | 1005.5 |
| 20260506003008 | 56 | 163 | 2.0 | 5.0 | 0.00 | 0.00 | 0.00 | 66 | 1005.5 |
| 20260506001009 | 58 | 177 | 2.0 | 4.0 | 0.00 | 0.00 | 0.00 | 61 | 1005.6 |
| 20260505235006 | 61 | 204 | 3.0 | 5.0 | 0.00 | 0.00 | 0.00 | 57 | 1005.8 |
| 20260505234006 | 61 | 225 | 3.0 | 6.0 | 0.00 | 0.00 | 0.00 | 56 | 1005.9 |
| 20260505231006 | 61 | 198 | 3.0 | 8.0 | 0.00 | 0.00 | 0.00 | 54 | 1006.0 |
| 20260505230009 | 61 | 175 | 2.0 | 7.0 | 0.00 | 0.00 | 0.00 | 53 | 1006.0 |
| 20260505225004 | 62 | 193 | 3.0 | 5.0 | 0.00 | 0.00 | 0.00 | 51 | 1006.1 |
| 20260505224004 | 62 | 178 | 3.0 | 5.0 | 0.00 | 0.00 | 0.00 | 51 | 1006.0 |
| 20260505223004 | 63 | 182 | 3.0 | 4.0 | 0.00 | 0.00 | 0.00 | 50 | 1006.1 |
| 20260505221004 | 64 | 173 | 5.0 | 8.0 | 0.00 | 0.00 | 0.00 | 48 | 1006.1 |
| 20260505215006 | 65 | 173 | 6.0 | 9.0 | 0.00 | 0.00 | 0.00 | 46 | 1006.1 |
| 20260505214006 | 65 | 182 | 6.0 | 10.0 | 0.00 | 0.00 | 0.00 | 46 | 1006.1 |
| 20260505212005 | 67 | 149 | 10.0 | 18.0 | 0.00 | 0.00 | 0.00 | 43 | 1006.0 |
| 20260505211005 | 67 | 165 | 10.0 | 20.0 | 0.00 | 0.00 | 0.00 | 43 | 1006.1 |
| 20260505205005 | 68 | 171 | 12.0 | 25.0 | 0.00 | 0.00 | 0.00 | 43 | 1006.3 |
| 20260505204005 | 68 | 190 | 12.0 | 19.0 | 0.00 | 0.00 | 0.00 | 44 | 1006.4 |
| 20260505203005 | 68 | 186 | 14.0 | 26.0 | 0.00 | 0.00 | 0.00 | 44 | 1006.3 |
| 20260505202005 | 68 | 162 | 12.0 | 23.0 | 0.00 | 0.00 | 0.00 | 46 | 1006.2 |
| 20260505201007 | 68 | 175 | 9.0 | 18.0 | 0.00 | 0.00 | 0.00 | 47 | 1006.2 |
| 20260505200009 | 68 | 161 | 7.0 | 10.0 | 0.00 | 0.00 | 0.00 | 47 | 1006.2 |
| 20260505195005 | 69 | 171 | 7.0 | 10.0 | 0.00 | 0.00 | 0.00 | 46 | 1006.2 |
| 20260505194007 | 69 | 167 | 9.0 | 18.0 | 0.00 | 0.00 | 0.00 | 45 | 1006.1 |
| 20260505193009 | 69 | 192 | 9.0 | 16.0 | 0.00 | 0.00 | 0.00 | 45 | 1006.2 |
| 20260505192004 | 69 | 167 | 8.0 | 12.0 | 0.00 | 0.00 | 0.00 | 44 | 1006.2 |
| 20260505190008 | 70 | 147 | 7.0 | 11.0 | 0.00 | 0.00 | 0.00 | 44 | 1006.2 |
| 20260505185005 | 70 | 157 | 9.0 | 12.0 | 0.00 | 0.00 | 0.00 | 43 | 1006.2 |
| 20260505184004 | 70 | 162 | 8.0 | 10.0 | 0.00 | 0.00 | 0.00 | 42 | 1006.2 |
| 20260505183005 | 71 | 160 | 8.0 | 13.0 | 0.00 | 0.00 | 0.00 | 41 | 1006.1 |
| 20260505182004 | 71 | 180 | 9.0 | 15.0 | 0.00 | 0.00 | 0.00 | 41 | 1006.1 |